Starlink 32099

operational
NORAD ID: 59697 Int'l Des: 2024-086 Owner: SPXS Country: US Constellation: starlink
LEOCIRCULAR

Starlink 32099について

説明を読み込み中...

リアルタイム位置

3D地球を読み込み中...

次回通過

高度履歴

Altitude vs Time

uPlot chart will show altitude changes over time

軌道要素

1 59697U 24086R 25350.77288279 .00001047 00000-0 47580-4 0 9991
2 59697 43.0012 167.9472 0001295 270.1938 89.8765 15.27576123 91430
Epoch: Dec 16, 2025 • Age: 15 hours

現在のステータス

高度 483.6 km
速度 7.63 km/s
衛星直下点 25.52°N, 88.31°E
打ち上げ日 May 8, 2024
運用期間 1.6 years
タイプ internet

技術仕様

分類 Payload
質量 730.00 kg
乾燥質量 700.00 kg
総質量 730.00 kg
長さ 0.30 m
直径 4.10 m
スパン 29.00 m
形状 Box + pan
製造者 SPXS
バスタイプ Starlink V2M
フェーズステータス In Orbit
所有者/国 SPXS/US

大規模コンステレーション

Loading constellations...